MST,Max TemperatureF,Mean TemperatureF,Min TemperatureF,Max Dew PointF,MeanDew PointF,Min DewpointF,Max Humidity, Mean Humidity, Min Humidity, Max Sea Level PressureIn, Mean Sea Level PressureIn, Min Sea Level PressureIn, Max VisibilityMiles, Mean VisibilityMiles, Min VisibilityMiles, Max Wind SpeedMPH, Mean Wind SpeedMPH, Max Gust SpeedMPH,PrecipitationIn, CloudCover, Events, WindDirDegrees
2012-1-1,30,22,13,17,12,8,88,67,46,30.76,30.65,30.34,10,10,10,13,4,15,0.00,0,,252
2012-1-2,41,27,13,29,18,8,84,72,59,30.68,30.37,30.09,10,10,10,10,2,16,0.00,0,,59
2012-1-3,52,39,26,29,24,19,75,54,33,30.32,30.18,30.01,10,10,10,26,9,31,0.00,0,,320
2012-1-4,58,41,24,39,28,20,82,67,51,30.31,30.23,30.12,10,10,10,9,2,15,0.00,0,,198
2012-1-5,67,48,29,36,26,21,78,48,18,30.06,29.94,29.75,10,10,10,23,7,28,0.00,1,,303
2012-1-6,40,32,23,25,17,12,74,54,33,30.21,30.10,29.97,10,10,10,23,7,28,0.00,3,,332
2012-1-7,38,28,18,21,17,14,81,61,40,30.30,30.17,30.06,10,10,10,16,5,18,0.00,2,,292
2012-1-8,43,29,14,22,16,9,80,55,30,30.28,30.22,30.09,10,10,10,8,2,10,0.00,0,,188
2012-1-9,56,41,25,31,25,21,81,57,32,30.27,30.17,30.06,10,10,10,10,2,16,0.00,0,,162
2012-1-10,48,36,24,32,26,19,89,67,45,30.22,29.98,29.74,10,6,1,35,12,43,0.06,6,Rain-Snow,318
2012-1-11,24,14,4,19,8,-2,88,66,43,30.50,30.34,30.15,10,6,1,32,16,38,0.01,6,Snow,310
2012-1-12,33,21,9,15,9,2,76,60,43,30.35,30.26,30.11,10,10,10,22,7,28,0.00,3,,283
2012-1-13,46,33,19,21,17,11,74,51,28,30.19,30.06,29.95,10,10,10,35,9,40,0.00,2,,277
2012-1-14,50,35,19,26,19,13,84,61,37,30.14,29.93,29.68,10,10,10,14,3,20,0.00,1,,355
2012-1-15,54,37,20,21,14,7,84,50,15,29.99,29.78,29.57,10,10,10,25,10,36,0.00,4,,325
2012-1-16,20,4,-12,15,5,-15,92,83,73,30.31,29.97,29.82,10,4,0,14,7,16,0.11,7,Fog-Snow,355
2012-1-17,32,10,-12,4,-3,-14,86,55,23,30.29,30.10,29.78,10,10,8,43,11,54,0.00,0,,230
2012-1-18,31,13,-5,9,-1,-10,87,59,31,30.04,29.88,29.64,10,9,4,39,13,51,T,6,Snow,321
2012-1-19,12,4,-5,4,-3,-10,87,75,63,30.04,29.88,29.55,10,10,10,9,3,10,0.00,4,,2
2012-1-20,21,12,2,10,2,-2,91,74,57,30.14,29.96,29.79,10,9,1,18,5,22,0.02,5,Snow,327
2012-1-21,39,24,9,35,20,7,96,76,56,29.70,29.44,29.21,10,10,5,12,3,15,0.09,4,Rain,343
2012-1-22,38,28,17,33,21,12,100,69,37,29.96,29.75,29.45,10,9,2,35,13,44,T,3,Snow,314
2012-1-23,41,27,13,25,17,10,88,64,40,29.99,29.90,29.78,10,10,5,20,3,24,T,2,Snow,331
2012-1-24,41,31,20,29,16,6,77,51,25,30.23,30.10,29.91,10,10,2,20,7,23,T,2,Snow,248
2012-1-25,56,38,20,35,22,12,75,51,27,30.08,29.92,29.80,10,10,10,40,13,51,0.02,1,Rain,304
2012-1-26,44,34,24,29,24,19,82,66,50,30.10,29.93,29.76,10,10,10,26,6,33,0.00,4,,215
2012-1-27,34,26,18,23,16,-1,88,58,27,30.35,30.21,29.98,10,6,0,43,16,56,0.04,5,Fog-Snow,314
2012-1-28,37,27,17,19,10,4,68,49,29,30.33,30.26,30.12,10,10,10,25,5,30,0.00,5,,256
2012-1-29,56,41,25,26,22,18,75,51,26,30.08,29.89,29.71,10,10,10,32,11,41,0.00,3,,270
2012-1-30,57,44,30,26,21,16,72,48,24,29.84,29.68,29.59,10,10,10,33,11,39,0.00,2,,288
2012-1-31,48,35,22,23,20,18,88,60,31,30.09,30.01,29.85,10,10,10,14,4,17,0.00,1,,161